1364428827534,45.0462
1364428887534,45.1206
1364428947534,45.1530
1364429007534,45.1238
1364429067534,45.1487
1364429127534,45.1514
1364429187534,44.9575
1364429247534,45.2166
1364429307534,44.9477
1364429367534,45.1158
1364429427534,45.3055
1364429487534,45.2405
1364429547534,45.0668
1364429607534,45.1166
1364429667534,45.1507
1364429727534,45.0179
1364429787534,45.1156
1364429847534,45.1357
1364429907534,45.1068
1364429967534,45.0752
1364430027534,45.0759
1364430087534,45.1226
1364430147534,45.0801
1364430207534,45.1965
1364430267534,45.0963
1364430327534,44.9645
1364430387534,45.1340
1364430447534,45.0919
1364430507534,45.1051
1364430567534,45.1726
1364430627534,45.0231
1364430687534,45.1134
1364430747534,44.9613
1364430807534,45.0979
1364430867534,44.9546
1364430927534,45.0464
1364430987534,45.0480
1364431047534,44.9666
1364431107534,44.9114
1364431167534,45.0171
1364431227534,45.2196
1364431287534,45.0309
1364431347534,45.0661
1364431407534,44.9931
1364431467534,45.1036
1364431527534,45.0284
1364431587534,45.0758
1364431647534,44.9469
1364431707534,45.0214
1364431767534,45.1154
1364431827534,45.0429
1364431887534,45.0848
1364431947534,44.8840
1364432007534,45.0901
1364432067534,45.1054
1364432127534,44.9199
1364432187534,44.9670
1364432247534,44.9812
1364432307534,45.0963
1364432367534,44.9951
1364432427547,45.1076
1364432487547,45.0742
1364432547547,45.0240
1364432607547,45.0209
1364432667547,44.9855
1364432727547,45.0845
1364432787547,45.1340
1364432847547,45.2827
1364432907547,44.9686
1364432967547,45.1616
1364433027547,45.0791
1364433087547,44.9292
1364433147547,45.0943
1364433207547,44.9877
1364433267547,45.1529
1364433327547,45.0832
1364433387547,45.2028
1364433447547,45.0782
1364433507547,45.0637
1364433567547,44.9243
1364433627547,45.0561
1364433687547,45.1464
1364433747547,45.1384
1364433807547,45.1137
1364433867547,45.1280
1364433927547,45.2273
1364433987547,45.0304
1364434047547,45.1459
1364434107547,45.2366
1364434167547,45.2135
1364434227547,45.2978
1364434287547,45.1568
1364434347547,45.0906
1364434407547,44.9757
1364434467547,45.2147
1364434527547,45.2316
1364434587547,45.1496
1364434647547,45.1880
1364434707547,45.3003
1364434767547,45.2514
1364434827547,45.2056
1364434887547,45.0571
1364434947547,45.2271
1364435007547,45.2112
1364435067547,45.2719
1364435127547,45.2181
1364435187547,45.2627
1364435247547,45.1764
1364435307547,45.2022
1364435367547,45.1107
1364435427547,45.2677
1364435487547,45.3007
1364435547547,45.0267
1364435607547,45.3310
1364435667547,45.1807
1364435727547,45.3272
1364435787547,45.2255
1364435847547,45.2834
1364435907547,45.2599
1364435967547,45.4454
1364436027560,45.1196
1364436087560,45.1609
1364436147560,45.2018
1364436207560,45.0981
1364436267560,45.0936
1364436327560,45.2363
1364436387560,45.2632
1364436447561,45.3018
1364436507561,45.2252
1364436567561,45.3257
1364436627561,45.1432
1364436687560,45.1259
1364436747560,45.1044
1364436807560,45.3120
1364436867560,45.1248
1364436927560,45.2942
1364436987560,45.2872
1364437047560,45.1144
1364437107560,45.1184
1364437167560,45.2633
1364437227560,45.2305
1364437287560,45.2136
1364437347560,45.2566
1364437407560,45.3567
1364437467560,45.2619
1364437527560,45.3186
1364437587560,45.2549
1364437647560,45.3219
1364437707560,45.2251
1364437767560,45.3204
1364437827561,45.2509
1364437887561,45.3506
1364437947561,45.2732
1364438007561,45.1879
1364438067560,45.3389
1364438127560,45.4300
1364438187560,45.1141
1364438247560,45.2629
1364438307560,45.3881
1364438367560,45.3544
1364438427560,45.2747
1364438487560,45.2361
1364438547560,45.2852
1364438607560,45.2641
1364438667560,45.4202
1364438727560,45.3690
1364438787560,45.3945
1364438847560,45.3522
1364438907560,45.3785
1364438967560,45.3661
1364439027560,45.3534
1364439087560,45.3630
1364439147561,45.2470
1364439207561,45.3268
1364439267561,45.3118
1364439327561,45.3327
1364439387560,45.3650
1364439447560,45.2643
1364439507560,45.2845
1364439567560,45.1997
1364439627574,45.3298
1364439687574,45.2774
1364439747574,45.0988
1364439807574,45.2191
1364439867574,45.0723
1364439927574,45.4763
1364439987574,45.3299
1364440047574,45.3981
1364440107574,45.2470
1364440167574,45.1732
1364440227574,45.1150
1364440287574,45.3421
1364440347574,45.2342
1364440407574,45.3362
1364440467574,45.1743
1364440527574,45.2714
1364440587574,45.2786
1364440647574,45.2258
1364440707574,45.1848
1364440767574,45.2629
1364440827574,45.0870
1364440887574,45.3366
1364440947574,45.1937
1364441007574,45.1860
1364441067574,45.1206
1364441127574,45.1990
1364441187574,45.1595
1364441247574,44.9653
1364441307574,45.0958
1364441367574,45.0597
1364441427574,45.1280
1364441487574,45.1437
1364441547574,45.0713
1364441607574,45.1647
1364441667574,45.3237
1364441727574,45.2275
1364441787574,45.0564
1364441847574,45.1394
1364441907574,45.1068
1364441967574,45.0909
1364442027574,45.0663
1364442087574,45.0280
1364442147574,45.1769
1364442207574,45.1014
1364442267574,45.2193
1364442327574,45.1513
1364442387574,45.2212
1364442447574,45.2285
1364442507574,44.9969
1364442567574,45.1569
1364442627574,45.1069
1364442687574,45.1773
1364442747574,45.2184
1364442807574,45.1075
1364442867574,45.2649
1364442927574,45.1306
1364442987574,45.0429
1364443047574,45.2142
1364443107574,45.1159
1364443167574,45.1164
1364443227587,45.3737
1364443287587,45.1437
1364443347587,45.2406
1364443407587,45.2779
1364443467587,45.2109
1364443527587,45.1550
1364443587587,45.2270
1364443647587,45.2866
1364443707587,45.1497
1364443767587,45.1082
1364443827587,45.0846
1364443887587,45.0415
1364443947587,45.0347
1364444007587,45.0029
1364444067587,45.1301
1364444127587,44.9007
1364444187587,45.0247
1364444247587,45.2354
1364444307587,45.0472
1364444367587,45.2007
1364444427587,45.0029
1364444487587,45.0153
1364444547587,45.1150
1364444607587,45.0467
1364444667587,45.1228
1364444727587,45.1504
1364444787587,44.9739
1364444847587,45.1747
1364444907587,44.8600
1364444967587,44.9983
1364445027587,45.2273
1364445087587,45.1967
1364445147587,45.2216
1364445207587,45.0564
1364445267587,44.9141
1364445327587,45.3240
1364445387587,45.2182
1364445447587,45.2618
1364445507587,45.1681
1364445567587,45.2412
1364445627587,45.1758
1364445687587,45.3317
1364445747587,45.2226
1364445807587,45.0671
1364445867587,45.0594
1364445927587,45.3391
1364445987587,45.1406
1364446047587,45.2521
1364446107587,45.1526
1364446167587,45.1520
1364446227587,45.2347
1364446287587,45.2657
1364446347587,45.2552
1364446407587,45.2386
1364446467587,45.1191
1364446527587,45.3049
1364446587587,45.0541
1364446647587,45.2911
1364446707587,45.2461
1364446767587,45.2933
1364446827600,45.2030
1364446887600,45.3978
1364446947600,45.1402
1364447007600,45.2606
1364447067600,45.0897
1364447127600,45.3233
1364447187600,45.3930
1364447247600,45.3713
1364447307600,45.2404
1364447367600,45.3243
1364447427600,45.3542
1364447487600,45.1571
1364447547600,45.2746
1364447607600,45.4422
1364447667600,45.2827
1364447727600,45.2960
1364447787600,45.3989
1364447847600,45.2798
1364447907600,45.3171
1364447967600,45.1887
1364448027600,45.1172
1364448087600,45.2756
1364448147600,45.1794
1364448207600,45.3502
1364448267600,45.3340
1364448327600,45.3318
1364448387600,45.4167
1364448447600,45.2480
1364448507600,45.0977
1364448567600,45.3878
1364448627600,45.3447
1364448687600,45.3746
1364448747600,45.4128
1364448807600,45.3940
1364448867600,45.3451
1364448927600,45.3362
1364448987600,45.2854
1364449047600,45.4106
1364449107600,45.2349
1364449167600,45.2095
1364449227600,45.2385
1364449287600,45.3070
1364449347600,45.2458
1364449407600,45.3892
1364449467600,45.3016
1364449527600,45.3425
1364449587600,45.2235
1364449647600,45.3237
1364449707600,45.4289
1364449767600,45.3032
1364449827600,45.4331
1364449887600,45.3633
1364449947600,45.3025
1364450007600,45.5315
1364450067600,45.3835
1364450127600,45.4794
1364450187600,45.3422
1364450247600,45.4555
1364450307600,45.4554
1364450367600,45.4373
1364450427613,45.3282
1364450487613,45.4261
1364450547613,45.6349
1364450607613,45.4709
1364450667613,45.2822
1364450727613,45.4204
1364450787613,45.5042
1364450847613,45.4483
1364450907613,45.4780
1364450967613,45.3055
1364451027613,45.5878
1364451087613,45.5361
1364451147613,45.4209
1364451207613,45.3469
1364451267613,45.3587
1364451327613,45.5612
1364451387613,45.2971
1364451447613,45.3237
1364451507613,45.4443
1364451567613,45.4857
1364451627613,45.3720
1364451687613,45.5436
1364451747613,45.4530
1364451807613,45.4027
1364451867613,45.3519
1364451927613,45.3360
1364451987613,45.3673
1364452047613,45.2272
1364452107613,45.1754
1364452167613,45.2675
1364452227613,45.3789
1364452287613,45.3016
1364452347613,45.3454
1364452407613,45.2671
1364452467613,45.1883
1364452527613,45.2922
1364452587613,45.1283
1364452647613,45.0112
1364452707613,45.2522
1364452767613,45.2786
1364452827613,45.2383
1364452887613,45.2180
1364452947613,45.4111
1364453007613,45.2538
1364453067613,45.3038
1364453127613,45.2020
1364453187613,45.0128
1364453247613,45.2326
1364453307613,45.2368
1364453367613,45.0638
1364453427613,45.2200
1364453487613,45.1721
1364453547613,45.1456
1364453607613,45.0259
1364453667613,45.1171
1364453727613,45.0396
1364453787613,45.0634
1364453847613,45.0952
1364453907613,45.0251
1364453967613,44.9981
1364454027626,45.2281
1364454087626,45.1686
1364454147626,45.0680
1364454207626,45.1169
1364454267626,44.9841
1364454327626,44.9770
1364454387626,44.9801
1364454447626,45.0564
1364454507626,45.0673
1364454567626,45.0228
1364454627626,45.1175
1364454687626,45.0999
1364454747626,45.0353
1364454807626,45.0224
1364454867626,45.0064
1364454927626,45.0513
1364454987626,45.0482
1364455047626,45.1716
1364455107626,45.1246
1364455167626,45.0168
1364455227626,44.9028
1364455287626,44.9533
1364455347626,44.9674
1364455407626,44.9809
1364455467626,45.0491
1364455527626,44.9134
1364455587626,45.1627
1364455647626,44.9649
1364455707626,45.1307
1364455767626,45.0494
1364455827626,44.9253
1364455887626,44.9686
1364455947626,44.9580
1364456007626,45.0452
1364456067626,45.1067
1364456127626,44.9987
1364456187626,45.0494
1364456247626,45.1379
1364456307626,45.0318
1364456367626,44.9129
1364456427626,44.9975
1364456487626,45.1208
1364456547626,45.0000
1364456607626,45.1191
1364456667626,45.2587
1364456727626,44.9430
1364456787626,44.9209
1364456847626,45.0125
1364456907626,44.9937
1364456967626,45.0620
1364457027626,45.1239
1364457087626,45.0090
1364457147626,45.1003
1364457207626,45.0980
1364457267626,45.0747
1364457327626,44.8299
1364457387626,44.9057
1364457447626,45.0236
1364457507626,44.8937
1364457567626,44.9802
1364457627639,45.0049
1364457687639,45.0441
1364457747639,44.9680
1364457807639,45.2727
1364457867639,45.0934
1364457927639,45.0391
1364457987639,45.1052
1364458047639,44.9910
1364458107639,45.0344
1364458167639,45.0631
1364458227639,45.0395
1364458287639,45.0473
1364458347639,44.8796
1364458407639,44.9682
1364458467639,44.9919
1364458527639,45.1923
1364458587639,45.0781
1364458647639,45.0243
1364458707639,45.0904
1364458767639,45.0450
1364458827639,44.8505
1364458887639,45.0918
1364458947639,45.1894
1364459007639,45.0861
1364459067639,45.0992
1364459127639,45.0228
1364459187639,45.1944
1364459247639,45.0465
1364459307639,45.1238
1364459367639,45.3544
1364459427639,45.0434
1364459487639,45.1505
1364459547639,44.9106
1364459607639,45.1351
1364459667639,45.2849
1364459727639,45.0629
1364459787639,45.1697
1364459847639,45.0397
1364459907639,45.0889
1364459967639,45.1598
1364460027639,45.3295
1364460087639,45.0592
1364460147639,45.2604
1364460207639,45.2963
1364460267639,45.2670
1364460327639,45.0164
1364460387639,45.2591
1364460447639,45.3587
1364460507639,45.2828
1364460567639,45.1661
1364460627639,45.2092
1364460687639,45.0615
1364460747639,45.3433
1364460807639,45.2005
1364460867639,45.1491
1364460927639,45.3306
1364460987639,45.3307
1364461047639,45.1931
1364461107639,45.2752
1364461167639,45.3335
1364461227652,45.2156
1364461287652,45.3450
1364461347652,45.3127
1364461407652,45.3771
1364461467652,45.4088
1364461527652,45.3194
1364461587652,45.4252
1364461647652,45.3492
1364461707652,45.3527
1364461767652,45.3977
1364461827652,45.3420
1364461887652,45.4474
1364461947652,45.3964
1364462007652,45.4393
1364462067652,45.3769
1364462127652,45.4791
1364462187652,45.5367
1364462247652,45.4707
1364462307652,45.4565
1364462367652,45.3863
1364462427652,45.5057
1364462487652,45.3286
1364462547652,45.4738
1364462607652,45.5609
1364462667652,45.5134
1364462727652,45.4914
1364462787652,45.5194
1364462847652,45.3311
1364462907652,45.5839
1364462967652,45.5013
1364463027652,45.4531
1364463087652,45.6244
1364463147652,45.6084
1364463207652,45.2759
1364463267652,45.4261
1364463327652,45.4758
1364463387652,45.5404
1364463447652,45.5793
1364463507652,45.4568
1364463567652,45.4017
1364463627652,45.4409
1364463687652,45.4266
1364463747652,45.5369
1364463807652,45.5385
1364463867652,45.5780
1364463927652,45.4904
1364463987652,45.6638
1364464047652,45.4754
1364464107652,45.5439
1364464167652,45.4941
1364464227652,45.3954
1364464287652,45.5797
1364464347652,45.5916
1364464407652,45.4242
1364464467652,45.4921
1364464527652,45.5203
1364464587652,45.6315
1364464647652,45.5037
1364464707652,45.5913
1364464767652,45.4958
1364464827665,45.7035
1364464887665,45.5167
1364464947665,45.4585
1364465007665,45.6396
1364465067665,45.6796
1364465127665,45.4716
1364465187665,45.6286
1364465247665,45.6905
1364465307665,45.6447
1364465367665,45.5815
1364465427665,45.6932
1364465487665,45.7029
1364465547665,45.5264
1364465607665,45.7240
1364465667665,45.6165
1364465727665,45.6164
1364465787665,45.5940
1364465847665,45.5214
1364465907665,45.8534
1364465967665,45.5322
1364466027665,45.7907
1364466087665,45.6303
1364466147665,45.5735
1364466207665,45.5313
1364466267665,45.9344
1364466327665,45.7144
1364466387665,45.7363
1364466447665,45.6845
1364466507665,45.6803
1364466567665,45.8089
1364466627665,45.6466
1364466687665,45.8157
1364466747665,45.6855
1364466807665,45.7086
1364466867665,45.6071
1364466927665,45.6791
1364466987665,45.8405
1364467047665,45.8487
1364467107665,45.7967
1364467167665,45.9713
1364467227665,45.9864
1364467287665,45.8225
1364467347665,45.7829
1364467407665,45.9183
1364467467665,45.7318
1364467527665,45.7633
1364467587665,45.7565
1364467647665,45.6066
1364467707665,45.9751
1364467767665,45.6484
1364467827665,45.6813
1364467887665,45.8103
1364467947665,45.8723
1364468007665,45.7838
1364468067665,45.7705
1364468127665,45.8131
1364468187665,45.9023
1364468247665,45.7614
1364468307665,45.8065
1364468367665,45.9235
1364468427678,45.8837
1364468487678,45.9174
1364468547678,45.7768
1364468607678,45.8365
1364468667678,45.8810
1364468727678,45.9023
1364468787678,45.9706
1364468847678,45.8500
1364468907678,45.8937
1364468967678,45.8303
1364469027678,45.7456
1364469087678,45.7937
1364469147678,45.9962
1364469207678,46.0098
1364469267678,45.9628
1364469327678,45.9409
1364469387678,45.8965
1364469447678,45.8568
1364469507678,45.8221
1364469567678,45.9240
1364469627678,45.9253
1364469687678,46.0208
1364469747678,45.8742
1364469807678,45.7080
1364469867678,45.8292
1364469927678,45.8798
1364469987678,45.8664
1364470047678,45.8919
1364470107678,45.8437
1364470167678,45.8304
1364470227678,45.8641
1364470287678,45.9782
1364470347678,45.8290
1364470407678,45.8716
1364470467678,45.8613
1364470527678,45.8000
1364470587678,45.8532
1364470647678,45.8307
1364470707678,45.8841
1364470767678,46.0284
1364470827678,45.9089
1364470887678,45.7964
1364470947678,46.0108
1364471007678,45.8698
1364471067678,45.7823
1364471127678,45.9715
1364471187678,45.9309
1364471247678,45.9500
1364471307678,45.8614
1364471367678,45.9880
1364471427678,46.0117
1364471487678,45.8680
1364471547678,45.9873
1364471607678,45.9105
1364471667678,46.0051
1364471727678,45.8540
1364471787678,45.9683
1364471847678,46.0560
1364471907678,45.8287
1364471967678,45.9584
1364472027691,45.9757
1364472087691,45.9681
1364472147691,46.0968
1364472207691,45.8486
1364472267691,46.1071
1364472327691,45.9966
1364472387691,46.0836
1364472447691,46.3357
1364472507691,46.1863
1364472567691,46.0445
1364472627691,46.0820
1364472687691,46.2279
1364472747691,46.0107
1364472807691,46.1475
1364472867691,45.8310
1364472927691,45.9968
1364472987691,46.0307
1364473047691,46.0174
1364473107691,46.1953
1364473167691,46.0857
1364473227691,46.1469
1364473287691,46.1152
1364473347691,46.1486
1364473407691,46.3018
1364473467691,45.9992
1364473527691,46.1746
1364473587691,46.2073
1364473647691,46.1355
1364473707691,46.1843
1364473767691,46.2199
1364473827691,46.0638
1364473887691,46.2391
1364473947691,46.2756
1364474007691,46.1666
1364474067691,46.3518
1364474127691,46.1556
1364474187691,46.2800
1364474247691,46.1790
1364474307691,46.1794
1364474367691,46.2600
1364474427691,46.2565
1364474487691,46.2885
1364474547691,46.2701
1364474607691,46.2535
1364474667691,46.1970
1364474727691,46.3487
1364474787691,46.2495
1364474847691,46.2698
1364474907691,46.1484
1364474967691,46.2522
1364475027691,46.1883
1364475087691,46.2582
1364475147691,46.2692
1364475207691,46.2737
1364475267691,46.3434
1364475327691,46.2664
1364475387691,46.1949
1364475447691,46.1653
1364475507691,46.3153
1364475567691,46.2973
1364475627678,46.2080
1364475687678,46.2696
1364475747679,46.2449
1364475807679,46.2077
1364475867679,46.1823
1364475927678,46.2176
1364475987678,46.2349
1364476047678,46.3618
1364476107679,46.3404
1364476167679,46.1674
1364476227679,46.2650
1364476287679,46.2881
1364476347679,46.3581
1364476407679,46.3334
1364476467679,46.2478
1364476527679,46.2649
1364476587678,46.1077
1364476647678,46.1652
1364476707678,46.3156
1364476767678,46.2032
1364476827678,46.3183
1364476887678,46.1606
1364476947678,46.3752
1364477007678,46.3074
1364477067679,46.4383
1364477127679,46.1431
1364477187679,46.3719
1364477247678,46.2743
1364477307678,46.3224
1364477367678,46.3627
1364477427679,46.3844
1364477487679,46.4401
1364477547679,46.3788
1364477607679,46.3965
1364477667679,46.3255
1364477727679,46.3416
1364477787679,46.4099
1364477847679,46.3524
1364477907679,46.2996
1364477967678,46.2328
1364478027678,46.3475
1364478087678,46.2191
1364478147678,46.3406
1364478207678,46.2811
1364478267678,46.3294
1364478327678,46.3319
1364478387678,46.3655
1364478447679,46.1829
1364478507679,46.2500
1364478567679,46.3754
1364478627678,46.4375
1364478687678,46.2700
1364478747678,46.3449
1364478807679,46.1836
1364478867679,46.2530
1364478927679,46.4144
1364478987679,46.1814
1364479047679,46.3231
1364479107679,46.2641
1364479167679,46.4227
1364479227689,46.3899
1364479287689,46.4193
1364479347689,46.4510
1364479407689,46.3933
1364479467689,46.3870
1364479527689,46.3955
1364479587689,46.4027
1364479647689,46.3260
1364479707689,46.3433
1364479767689,46.3786
1364479827689,46.5004
1364479887689,46.3174
1364479947689,46.3890
1364480007689,46.3084
1364480067689,46.3741
1364480127689,46.3784
1364480187689,46.3641
1364480247689,46.3864
1364480307689,46.3299
1364480367689,46.3932
1364480427689,46.2946
1364480487689,46.4361
1364480547689,46.4881
1364480607689,46.3492
1364480667689,46.3732
1364480727689,46.3259
1364480787689,46.5245
1364480847689,46.3836
1364480907689,46.4739
1364480967689,46.4131
1364481027689,46.2375
1364481087689,46.3684
1364481147689,46.3208
1364481207689,46.4389
1364481267689,46.3319
1364481327689,46.3390
1364481387689,46.3414
1364481447689,46.2686
1364481507689,46.3443
1364481567689,46.3071
1364481627689,46.4958
1364481687689,46.3924
1364481747689,46.3791
1364481807689,46.3945
1364481867689,46.3708
1364481927689,46.4612
1364481987689,46.4595
1364482047689,46.5004
1364482107689,46.3501
1364482167689,46.4280
1364482227689,46.4457
1364482287689,46.5426
1364482347689,46.5204
1364482407689,46.6164
1364482467689,46.3697
1364482527689,46.4423
1364482587689,46.5635
1364482647689,46.4764
1364482707689,46.6565
1364482767689,46.5577
1364482827700,46.2027
1364483307700,46.5221
1364483367700,46.7630
1364483427700,46.5137
1364483487700,46.5285
1364483547700,46.3982
1364483607700,46.3978
1364483667700,46.5586
1364483727700,46.4168
1364484027700,46.4177
1364484087700,46.5949
1364484147700,46.4358
1364484207700,46.4075
1364484267700,46.3964
1364484327700,46.4382
1364484387700,46.3221
1364484447700,46.3916
1364484507700,46.4045
1364484567700,46.6844
1364484627700,46.5063
1364484687700,46.5522
1364484747700,46.4571
1364484807700,46.5131
1364484867700,46.4477
1364484927700,46.5530
1364484987700,46.5197
1364485047700,46.4840
1364485107700,46.4727
1364485167700,46.3797
1364485227700,46.3873
1364485287700,46.5113
1364485347700,46.5374
1364485407700,46.4113
1364485467700,46.3616
1364485527700,46.4777
1364485587700,46.4047
1364485647700,46.5212
1364485707700,46.5097
1364485767700,46.3720
1364485827700,46.3317
1364485887700,46.5961
1364485947700,46.3559
1364486007700,46.6865
1364486067700,46.4388
1364486127700,46.4150
1364486187700,46.5649
1364486247700,46.3675
1364486307700,46.4131
1364486367700,46.5595
1364486427711,46.4591
1364486487711,46.3613
1364486547711,46.4825
1364486607711,46.5125
1364486667711,46.3661
1364486727711,46.7177
1364486787711,46.5617
1364486847711,46.3978
1364486907711,46.4925
1364486967711,46.6154
1364487027711,46.6627
1364487087711,46.4698
1364487147711,46.3325
1364487207711,46.5143
1364487267711,46.4665
1364487327711,46.5376
1364487387711,46.5384
1364487447711,46.5107
1364487507711,46.3613
1364487567711,46.6632
1364487627711,46.6631
1364487687711,46.6517
1364487747711,46.6573
1364487807711,46.4866
1364487867711,46.5035
1364487927711,46.6055
1364487987711,46.6436
1364488047711,46.3903
1364488107711,46.4374
1364488167711,46.6304
1364488227711,46.5547
1364488287711,46.5038
1364488347711,46.6922
1364488407711,46.5221
1364488467711,46.6989
1364488527711,46.6157
1364488587711,46.6310
1364488647711,46.6499
1364488707711,46.5342
1364488767711,46.5297
1364488827711,46.5598
1364488887711,46.4399
1364488947711,46.5618
1364489007711,46.6160
1364489067711,46.6440
1364489127711,46.6030
1364489187711,46.8348
1364489247711,46.6050
1364489307711,46.5340
1364489367711,46.6242
1364489427711,46.7082
1364489487711,46.6546
1364489547711,46.6132
1364489607711,46.6484
1364489667711,46.6374
1364489727711,46.6876
1364489787711,46.6610
1364489847711,46.5517
1364489907711,46.5378
1364489967711,46.5552
1364490027722,46.6286
1364490087722,46.6719
1364490147722,46.6316
1364490207722,46.5147
1364490267722,46.5539
1364490327722,46.6039
1364490387722,46.5726
1364490447722,46.5946
1364490507722,46.6382
1364490567722,46.6254
1364490627722,46.5197
1364490687722,46.7362
1364490747722,46.5927
1364490807722,46.6726
1364490867722,46.4880
1364490927722,46.5225
1364490987722,46.5812
1364491047722,46.6075
1364491107722,46.7233
1364491167722,46.7013
1364491227722,46.6766
1364491287722,46.6874
1364491347722,46.6687
1364491407722,46.6623
1364491467722,46.5889
1364491527722,46.4798
1364491587722,46.6168
1364491647722,46.7229
1364491707722,46.6921
1364491767722,46.6680
1364491827722,46.6043
1364491887722,46.6885
1364491947722,46.6246
1364492007722,46.8001
1364492067722,46.6732
1364492127722,46.7506
1364492187722,46.7746
1364492247722,46.7872
1364492307722,46.6787
1364492367722,46.7365
1364492427722,46.7306
1364492487722,46.9118
1364492547722,46.8306
1364492607722,46.8742
1364492667722,46.7039
1364492727722,46.7654
1364492787722,46.8074
1364492847722,46.8746
1364492907722,46.8615
1364492967722,46.7967
1364493027722,46.7361
1364493087722,46.9699
1364493147722,46.6117
1364493207722,46.8044
1364493267722,46.7865
1364493327722,46.8221
1364493387722,46.6027
1364493447722,46.7670
1364493507722,46.8190
1364493567722,46.8089
1364493627733,46.7365
1364493687733,46.9772
1364493747733,46.7314
1364493807733,46.8100
1364493867733,46.8844
1364493927733,46.8466
1364493987733,46.9713
1364494047733,46.9689
1364494107733,46.7650
1364494167733,46.8066
1364494227733,47.0337
1364494287733,46.8190
1364494347733,46.7694
1364494407733,46.8521
1364494467733,46.7597
1364494527733,46.8394
1364494587733,46.9327
1364494647733,46.8115
1364494707733,46.9041
1364494767733,46.7852
1364494827733,46.7914